OV1-20/OV1-21 AKM

Satellite information

Favourite Embed

Satellite Type and Status

ROCKET BODYIN ORBIT

Key statistics

Satellite OV1-20/OV1-21 AKM at a glance.

Uptime

19633

Days in orbit

Revolutions

≈ 14.4

Per day

Orbit

LEO

Low Earth Orbit

Inclination

87.6

Latest

Satellite identification and parameters

Extended collection of information and parameters for OV1-20/OV1-21 AKM.

Object identification

Identified? True

Debris? False

Object name: OV1-20/OV1-21 AKM

International designator: 1971-067K

Object number (NORAD): 5395

Object ID (CCSDS): 5395

Country: UNITED STATES OF AMERICA (US)

Current information (Y/N): Y

RCS size: LARGE

Orbital parameters

Period: 99.899 minutes

Inclination: 87.6158 deg

SMA: 7131.811 km

Apoapsis: 792.098 km

Periapsis: 715.253 km

RAAN: 71.313 deg

Eccentricy: 0.0053875

Argument of periapsis: 318.8515 deg

Mean anomaly: 40.8628 deg

Mean motion: 14.41461515 rev/day

Mean motion (dot): 0.00001432 rev/day2

B* drag term: 0.0004286 1/REarth

Two-line elements (TLE)

Creation date: May 8, 2025, 3:01 a.m.

Reference frame: TEME

Reference center: EARTH

Epoch: May 7, 2025, 9:47 p.m. UTC

TLE line 0: 0 OV1-20/OV1-21 AKM

TLE line 1: 1 05395U 71067K 25127.90773641 .00001432 00000-0 42860-3 0 9990

TLE line 2: 2 05395 87.6158 71.3130 0053875 318.8515 40.8628 14.41461515799187

Live tracking on map

Real-time ground track for satellite OV1-20/OV1-21 AKM.

In-orbit conjunctions

A list of the most updated potential collisions computed for object OV1-20/OV1-21 AKM.

Target Orbit TCA Probability of collision Miss distance Type
CZ-4B R/B SSO 2025-04-19 00:08:41 0.0001068299 153.0 (m) ROCKET BODY
COSMOS 2251 DEB LEO 2025-03-20 04:56:49 0.0004600876 181.0 (m) DEBRIS
SCOUT G-1 DEB LEO 2024-12-18 19:22:27 0.0001752852 787.0 (m) DEBRIS
IRIDIUM 16 LEO 2024-10-26 17:15:59 0.0004476916 92.0 (m) PAYLOAD
CZ-6A DEB LEO 2024-10-09 02:15:01 0.0003025478 783.0 (m) DEBRIS

Associated space launch

High-density satellite designed to obtain atmospheric density data at low altitudes.

OV1-20/OV1-21 AKM was lifted into orbit during the mission ‘Atlas F | LOADS 2’, on board a Atlas F space rocket.

The launch took place on Aug. 7, 1971, 12:11 a.m. from 576A2.

For more information about the launch, click the button.

Launch to space Atlas F | LOADS 2
Atlas F | LOADS 2

Agency: N/A

Status: Launch Successful

Launch date: Aug. 7, 1971, 12:11 a.m. UTC

Rocket: Atlas F

Launch pad: 576A2

Location: Vandenberg SFB, CA, USA

...

Latest news about this satellite

There are no fresh news available about this satellite. Check back as we update our databases every day.


Newsletter sign-up

Weekly statistics, charts and insights to help you stay on top of the space industry.